[[{"header":{"parameterUnit":"m.s-1","parameterCategory":1,"la1":30.2991,"la2":30.254,"lo1":-89.0895,"lo2":-89.0444,"dy":0.0017,"dx":0.0017,"nx":28,"ny":28,"refTime":"2024-12-21T03:00:00:Z","depth":0,"parameterNumber":2,"parameterNumberName":"U-component_of_WINDS"},"data":[0,0,0,0,0,0,0,0,0,0,0,0,0,0,0,0,0,0,0,0,0,0,0,0,0,0,0,0,0,0,0,0,0,0,0,0,0,0,0,0,0,0,0,0,0,0,0,0,0,0,0,0,0,0,0,0,0,0,-2.1422,-2.1422,0,-2.1429,-2.1429,-2.1429,-2.1351,-2.1349,-2.1346,-2.1344,-2.1355,-2.1357,-2.1359,0,0,0,0,0,0,0,0,0,0,0,0,0,-2.1345,-2.1346,-2.1422,-2.1422,-2.1422,-2.1429,-2.1429,-2.1429,-2.1351,-2.1348,-2.1346,-2.1343,-2.1354,-2.1357,-2.1359,0,0,0,0,0,0,0,0,0,0,0,0,0,-2.1368,-2.1347,-2.1422,-2.1384,-2.138,-2.1428,-2.1429,-2.1429,-2.1352,-2.1348,-2.1345,-2.1342,-2.1353,-2.1356,-2.136,-2.1445,0,0,-2.137,-2.1372,0,0,0,0,0,0,0,0,-2.1366,-2.1371,-2.1389,-2.1386,-2.1383,-2.1385,-2.1405,-2.1434,-2.1352,-2.1363,-2.1344,-2.1341,-2.1368,-2.137,-2.1378,-2.1446,-2.1446,-2.137,-2.1373,-2.1374,-2.1375,0,0,0,0,0,0,0,-2.1365,-2.137,-2.1424,-2.139,-2.1386,-2.1368,-2.1367,-2.141,-2.1383,-2.1362,-2.1356,-2.1358,-2.1365,-2.1375,-2.1378,-2.1446,-2.137,-2.1373,-2.1375,-2.1377,-2.1587,-2.159,0,0,0,0,0,0,-2.1368,-2.1369,-2.1424,-2.1425,-2.1366,-2.1372,-2.1371,-2.1388,-2.1383,-2.1379,-2.136,-2.1354,-2.1371,-2.1374,-2.1378,-2.1479,-2.1374,-2.1377,-2.1379,-2.1583,-2.1587,-2.1591,0,0,0,0,0,0,-2.1367,-2.1374,-2.1424,-2.1395,-2.14,-2.1376,-2.1396,-2.139,-2.1399,-2.1382,-2.1377,-2.1375,-2.1368,-2.1373,-2.1429,-2.1479,-2.1379,-2.1382,-2.1579,-2.1584,-2.1589,-2.1682,0,0,0,0,0,0,-2.1365,-2.1374,-2.1405,-2.1397,-2.1402,-2.1475,-2.1399,-2.1392,-2.1405,-2.1397,-2.1394,-2.1391,-2.1366,-2.1425,-2.1433,-2.1482,-2.1384,-2.1574,-2.1581,-2.1588,-2.1675,-2.169,-2.1703,0,0,0,0,0,-2.1362,-2.1431,-2.1407,-2.1414,-2.1441,-2.1477,-2.1481,-2.145,-2.1409,-2.1441,-2.143,-2.1391,-2.1472,-2.1431,-2.144,-2.149,-2.1571,-2.1579,-2.1587,-2.1668,-2.1687,-2.1703,0,0,0,0,0,0,-2.1447,-2.1429,-2.1402,-2.147,-2.1476,-2.1464,-2.1504,-2.1471,-2.1489,-2.1481,-2.1443,-2.1443,-2.1506,-2.1503,-2.1458,-2.1574,-2.1514,-2.1524,-2.1573,-2.1591,-2.1605,-2.1605,-2.1387,0,0,0,0,0,-2.1473,-2.1504,-2.1487,-2.1549,-2.1553,-2.1528,-2.1543,-2.1519,-2.1523,-2.1526,-2.1518,-2.1526,-2.1553,-2.1571,-2.1595,-2.1673,-2.1673,-2.1712,-2.1727,-2.1738,-2.1748,-2.1792,-2.181,-2.1617,-2.1617,-2.1617,0,0,-2.1529,-2.1523,-2.1544,-2.1565,-2.1567,-2.1601,-2.153,-2.1568,-2.1594,-2.1532,-2.1585,-2.158,-2.1585,-2.1654,-2.1683,-2.1653,-2.1801,-2.1749,-2.1758,-2.1762,-2.1802,-2.182,-2.1836,-2.1623,-2.1622,-2.1621,0,0,-2.1647,-2.1644,-2.1696,-2.1699,-2.1702,-2.1685,-2.1698,-2.1692,-2.1686,-2.1738,-2.1693,-2.1723,-2.1769,-2.1776,-2.1785,-2.1907,-2.1872,-2.1915,-2.1991,-2.2034,-2.2049,-2.2062,-2.2108,-2.2124,-2.1925,-2.1925,-2.1925,0,-2.1716,-2.1763,-2.1728,-2.1769,-2.1781,-2.1725,-2.1779,-2.1784,-2.1795,-2.1805,-2.177,-2.1829,-2.1829,-2.1899,-2.1929,-2.1937,-2.1952,-2.1916,-2.2049,-2.2062,-2.2074,-2.2117,-2.2134,-2.193,-2.193,-2.1929,-2.1929,0,-2.1849,-2.1883,-2.1924,-2.1936,-2.1952,-2.2,-2.1973,-2.1993,-2.1968,-2.1955,-2.2011,-2.2008,-2.2031,-2.2046,-2.2021,-2.2113,-2.2095,-2.2055,-2.1996,-2.2099,-2.2139,-2.2155,-2.1938,-2.1936,-2.1935,-2.1933,0,0,-2.2021,-2.2013,-2.2029,-2.2034,-2.2034,-2.206,-2.2105,-2.2127,-2.2147,-2.2156,-2.2195,-2.2236,-2.22,-2.2211,-2.2187,-2.2225,-2.2324,-2.2181,-2.2181,-2.221,-2.2428,-2.2459,-2.2478,-2.23,-2.2303,-2.2305,-2.2428,0,-2.2138,-2.2214,-2.2184,-2.2264,-2.2296,-2.2244,-2.2284,-2.2289,-2.2279,-2.2305,-2.2294,-2.2325,-2.2273,-2.228,-2.2314,-2.2305,-2.2368,-2.2295,-2.2338,-2.234,-2.234,-2.2499,-2.2531,-2.2647,-2.2443,-2.2446,-2.2447,0,-2.2284,-2.23,-2.2383,-2.2378,-2.239,-2.2427,-2.2445,-2.2471,-2.2476,-2.2466,-2.2478,-2.2446,-2.2492,-2.2431,-2.2495,-2.2447,-2.2462,-2.2461,-2.2464,-2.2469,-2.2402,-2.251,-2.2683,-2.2701,-2.2471,-2.2469,-2.2468,0,-2.2405,-2.2446,-2.2502,-2.2507,-2.2503,-2.253,-2.2529,-2.2531,-2.2547,-2.2563,-2.2573,-2.2595,-2.2608,-2.2626,-2.2602,-2.2559,-2.2671,-2.2607,-2.2665,-2.2666,-2.2693,-2.2692,-2.2873,-2.2699,-2.2699,-2.2699,-2.2698,0,-2.254,-2.2593,-2.2556,-2.259,-2.2649,-2.2614,-2.2674,-2.2667,-2.267,-2.2703,-2.2659,-2.2692,-2.2657,-2.2686,-2.2668,-2.2725,-2.273,-2.2725,-2.272,-2.273,-2.2732,-2.2742,-2.2734,-2.2703,-2.2702,-2.2701,-2.2701,0,-2.2685,-2.2662,-2.2719,-2.271,-2.2709,-2.2753,-2.2746,-2.2778,-2.2764,-2.2807,-2.2815,-2.2794,-2.2827,-2.2804,-2.2837,-2.2825,-2.2901,-2.2883,-2.2899,-2.2895,-2.2956,-2.2952,-2.3152,-2.3178,-2.2986,-2.2987,-2.2989,0,-2.2774,-2.2813,-2.2809,-2.2827,-2.283,-2.286,-2.2876,-2.2843,-2.2862,-2.2871,-2.2903,-2.2932,-2.2954,-2.3009,-2.2998,-2.3023,-2.3008,-2.3076,-2.3011,-2.3021,-2.3012,-2.3011,-2.3015,-2.309,-2.3092,-2.3094,-2.3096,0,-2.2934,-2.2921,-2.2945,-2.2965,-2.2985,-2.3,-2.3011,-2.3029,-2.2996,-2.302,-2.3053,-2.3069,-2.3103,-2.3133,-2.3155,-2.3155,-2.3122,-2.3116,-2.3131,-2.3143,-2.3152,-2.3151,-2.2938,-2.3112,-2.311,-2.3109,-2.3108,-2.3107,-2.3055,-2.3089,-2.3091,-2.312,-2.3125,-2.3137,-2.3167,-2.3157,-2.3183,-2.3208,-2.3187,-2.3227,-2.3233,-2.3257,-2.3263,-2.3295,-2.3267,-2.3289,-2.3294,-2.3301,-2.3311,-2.3145,-2.3298,-2.3298,-2.3297,-2.3297,-2.3296,0,-2.3216,-2.3214,-2.3241,-2.3258,-2.3281,-2.3245,-2.3256,-2.3278,-2.3314,-2.3321,-2.3343,-2.3382,-2.3411,-2.3403,-2.3429,-2.3457,-2.3442,-2.3465,-2.3464,-2.3465,-2.3333,-2.3318,-2.3477,-2.3477,-2.3477,-2.3477,-2.3477,-2.3476,-2.3302,-2.3358,-2.3345,-2.3404,-2.3402,-2.344,-2.345,-2.3461,-2.3467,-2.3512,-2.3536,-2.353,-2.3532,-2.3558,-2.3584,-2.3581,-2.3594,-2.3623,-2.3615,-2.3492,-2.3474,-2.3457,-2.3443,-2.3626,-2.3626,-2.3745,-2.3746,-2.3747]},{"header":{"parameterUnit":"m.s-1","parameterCategory":1,"la1":30.2991,"la2":30.254,"lo1":-89.0895,"lo2":-89.0444,"dy":0.0017,"dx":0.0017,"nx":28,"ny":28,"refTime":"2024-12-21T03:00:00:Z","depth":0,"parameterNumber":3,"parameterNumberName":"V-component_of_WINDS"},"data":[0,0,0,0,0,0,0,0,0,0,0,0,0,0,0,0,0,0,0,0,0,0,0,0,0,0,0,0,0,0,0,0,0,0,0,0,0,0,0,0,0,0,0,0,0,0,0,0,0,0,0,0,0,0,0,0,0,0,-1.5138,-1.5139,0,-1.5181,-1.5182,-1.5182,-1.5169,-1.5169,-1.5168,-1.5167,-1.5211,-1.5213,-1.5215,0,0,0,0,0,0,0,0,0,0,0,0,0,-1.5046,-1.5047,-1.5138,-1.5139,-1.5139,-1.5181,-1.5182,-1.5182,-1.517,-1.5168,-1.5167,-1.5166,-1.521,-1.5213,-1.5215,0,0,0,0,0,0,0,0,0,0,0,0,0,-1.5087,-1.5048,-1.5138,-1.5138,-1.5138,-1.5181,-1.5182,-1.5182,-1.517,-1.5168,-1.5167,-1.5166,-1.521,-1.5213,-1.5216,-1.5261,0,0,-1.5225,-1.5226,0,0,0,0,0,0,0,0,-1.5085,-1.509,-1.5138,-1.5138,-1.5139,-1.5169,-1.5165,-1.5209,-1.517,-1.5158,-1.5167,-1.5165,-1.5198,-1.5202,-1.5213,-1.5263,-1.5265,-1.5225,-1.5227,-1.5228,-1.5229,0,0,0,0,0,0,0,-1.5082,-1.5088,-1.5155,-1.5138,-1.5139,-1.5136,-1.514,-1.5173,-1.5185,-1.5159,-1.5158,-1.5163,-1.5198,-1.521,-1.5214,-1.5265,-1.5225,-1.5228,-1.5229,-1.5231,-1.5355,-1.5357,0,0,0,0,0,0,-1.5078,-1.5086,-1.5154,-1.5156,-1.5108,-1.5139,-1.5144,-1.516,-1.5185,-1.5187,-1.5164,-1.5163,-1.5206,-1.521,-1.5215,-1.5271,-1.5228,-1.5231,-1.5233,-1.5354,-1.5356,-1.5357,0,0,0,0,0,0,-1.5076,-1.5085,-1.5152,-1.5121,-1.5129,-1.5142,-1.5161,-1.5162,-1.5174,-1.5189,-1.5191,-1.5174,-1.5205,-1.5211,-1.525,-1.5272,-1.5232,-1.5235,-1.5352,-1.5354,-1.5356,-1.5382,0,0,0,0,0,0,-1.5074,-1.5084,-1.5101,-1.5122,-1.5131,-1.5186,-1.5162,-1.5164,-1.5179,-1.5177,-1.5199,-1.5201,-1.5204,-1.5245,-1.5253,-1.5276,-1.5237,-1.535,-1.5353,-1.5356,-1.5379,-1.5384,-1.5389,0,0,0,0,0,-1.5071,-1.5107,-1.5102,-1.5111,-1.5153,-1.5187,-1.5193,-1.5195,-1.5181,-1.5199,-1.5208,-1.52,-1.5268,-1.5249,-1.5258,-1.5282,-1.5349,-1.5352,-1.5355,-1.5377,-1.5383,-1.5389,0,0,0,0,0,0,-1.5089,-1.5109,-1.5105,-1.5148,-1.5166,-1.5185,-1.5208,-1.5202,-1.5225,-1.5222,-1.5224,-1.5229,-1.5269,-1.5279,-1.5258,-1.5327,-1.5306,-1.5311,-1.5319,-1.5326,-1.5331,-1.5329,-1.524,0,0,0,0,0,-1.5098,-1.5124,-1.514,-1.5177,-1.5186,-1.5195,-1.521,-1.5211,-1.5229,-1.5237,-1.5249,-1.5267,-1.5293,-1.531,-1.5334,-1.5379,-1.5385,-1.54,-1.5405,-1.5409,-1.5414,-1.544,-1.5447,-1.5368,-1.5368,-1.5368,0,0,-1.5118,-1.5132,-1.5148,-1.5181,-1.5195,-1.5222,-1.5202,-1.5231,-1.5251,-1.5241,-1.5279,-1.5288,-1.5309,-1.5352,-1.5371,-1.5361,-1.5437,-1.5414,-1.5417,-1.542,-1.5444,-1.5452,-1.5459,-1.5371,-1.537,-1.537,0,0,-1.5167,-1.518,-1.5212,-1.5227,-1.5248,-1.5253,-1.5261,-1.528,-1.5286,-1.5324,-1.5317,-1.5341,-1.5384,-1.54,-1.5413,-1.5467,-1.5461,-1.5475,-1.5503,-1.5528,-1.5534,-1.5539,-1.556,-1.5567,-1.5479,-1.5479,-1.548,0,-1.5188,-1.5229,-1.523,-1.526,-1.5275,-1.5267,-1.53,-1.5313,-1.5341,-1.5352,-1.534,-1.5395,-1.5408,-1.5455,-1.5468,-1.5478,-1.5488,-1.5473,-1.5533,-1.5538,-1.5544,-1.5563,-1.5571,-1.5481,-1.5481,-1.5481,-1.5481,0,-1.5255,-1.5283,-1.5306,-1.5334,-1.5351,-1.5383,-1.5389,-1.5406,-1.5405,-1.5412,-1.545,-1.5465,-1.5493,-1.5503,-1.5502,-1.555,-1.5543,-1.5532,-1.5512,-1.5553,-1.5571,-1.5579,-1.5483,-1.5483,-1.5482,-1.5482,0,0,-1.5318,-1.5345,-1.5354,-1.5367,-1.5389,-1.5411,-1.5441,-1.5468,-1.5484,-1.5503,-1.5529,-1.5566,-1.5556,-1.5571,-1.5571,-1.5593,-1.5636,-1.5579,-1.558,-1.5591,-1.5691,-1.57,-1.5709,-1.5632,-1.5633,-1.5634,-1.5689,0,-1.5371,-1.5426,-1.5427,-1.5477,-1.5504,-1.5495,-1.5522,-1.5539,-1.5546,-1.5569,-1.5577,-1.5603,-1.5587,-1.5596,-1.5617,-1.5627,-1.5657,-1.5622,-1.5657,-1.5659,-1.5654,-1.5718,-1.5728,-1.578,-1.5696,-1.5698,-1.5698,0,-1.5439,-1.5461,-1.5514,-1.5532,-1.5544,-1.5568,-1.5593,-1.5615,-1.5633,-1.5637,-1.5653,-1.565,-1.5682,-1.5659,-1.5703,-1.568,-1.5694,-1.5701,-1.5703,-1.5708,-1.5682,-1.5726,-1.5796,-1.5804,-1.571,-1.5709,-1.5708,0,-1.5482,-1.5524,-1.5562,-1.5572,-1.5594,-1.5612,-1.5622,-1.5639,-1.5655,-1.5676,-1.5687,-1.5711,-1.5725,-1.5744,-1.5748,-1.5731,-1.5793,-1.577,-1.5797,-1.5797,-1.5812,-1.5812,-1.5887,-1.5819,-1.5818,-1.5818,-1.5818,0,-1.5542,-1.5575,-1.5581,-1.5604,-1.5641,-1.5642,-1.5678,-1.5687,-1.5702,-1.5727,-1.5721,-1.5744,-1.5747,-1.5771,-1.5774,-1.5811,-1.5817,-1.5821,-1.5822,-1.5822,-1.5822,-1.5833,-1.583,-1.582,-1.582,-1.5819,-1.5819,0,-1.5597,-1.5602,-1.5642,-1.566,-1.5665,-1.5691,-1.5706,-1.5729,-1.5734,-1.5766,-1.5773,-1.5782,-1.581,-1.5816,-1.5849,-1.5851,-1.5895,-1.5891,-1.5889,-1.5889,-1.5917,-1.5915,-1.6003,-1.6015,-1.5937,-1.5938,-1.5939,0,-1.5635,-1.566,-1.568,-1.5696,-1.5707,-1.5733,-1.5749,-1.5751,-1.5768,-1.5791,-1.5811,-1.5838,-1.586,-1.5905,-1.5915,-1.594,-1.5938,-1.5967,-1.5942,-1.5942,-1.594,-1.5939,-1.5942,-1.5973,-1.5974,-1.5974,-1.5975,0,-1.5703,-1.5704,-1.5728,-1.5752,-1.5772,-1.5791,-1.581,-1.5823,-1.5827,-1.5847,-1.5875,-1.5892,-1.5926,-1.5953,-1.5979,-1.5989,-1.5983,-1.5982,-1.599,-1.5992,-1.5991,-1.5993,-1.5904,-1.5981,-1.598,-1.598,-1.5979,-1.5979,-1.5752,-1.5774,-1.5792,-1.5818,-1.5832,-1.5849,-1.5871,-1.5879,-1.5903,-1.5931,-1.593,-1.5962,-1.5979,-1.6012,-1.6024,-1.6049,-1.604,-1.6051,-1.6054,-1.6057,-1.6061,-1.5985,-1.6053,-1.6053,-1.6053,-1.6053,-1.6053,0,-1.5821,-1.5831,-1.5856,-1.5882,-1.5902,-1.5894,-1.5914,-1.5932,-1.596,-1.5977,-1.5998,-1.6031,-1.6058,-1.6069,-1.6095,-1.6113,-1.6111,-1.612,-1.612,-1.6122,-1.6067,-1.6058,-1.6121,-1.6121,-1.6121,-1.6121,-1.6121,-1.6121,-1.5859,-1.5897,-1.59,-1.5944,-1.5955,-1.5986,-1.5998,-1.6014,-1.6027,-1.6064,-1.6086,-1.6093,-1.6108,-1.6135,-1.6159,-1.6162,-1.6172,-1.6183,-1.6185,-1.6133,-1.6126,-1.612,-1.6111,-1.6185,-1.6185,-1.6238,-1.6239,-1.6239]}]]